SCP
0 0 0 0 0 0 0 0 0 0 0 0 0 0 0 0 0 0 0 0 0 0 0 0 0 0 0 0 0 0 0 0 0 0 0 0 0 0 0 0 0 0 0 0
0 0 0 0 0 0 0 0 0 0 0 0 0 0 0 0 0 0 0 0 0 0 0 0 0 0 0 0 0 0 0 0 0 0 0 0 0 0 0 0 0 0 0 0
0 0 0 0 0 0 0 0 0 0 0 0 0 0 0 0 0 0 0 0 0 0 0 0 0 0 0 0 0 0 0 0 0 0 0 0 0 0 0 0 0 0 0 0
0 0 0 0 0 0 0 0 0 0 0 0 0 0 0 0 0 0 0 0 0 0 0 0 0 0 0 0 0 0 0 0 0 0 0 0 0 0 0 0 0 0 0 0
0 0 0 0 0 0 0 0 0 0 0 0 0 0 0 0 0 0 0 0 0 0 0 0 0 0 0 0 0 0 0 0 0 0 0 0 0 0 0 0 0 0 0 0
0 0 0 0 0 0 0 0 0 0 0 0 0 0 0 0 0 0 0 0 0 0 0 0 0 0 0 0 0 0 0 0 0 0 0 0 0 0 0 0 0 0 0 0
0 0 0 0 0 0 0 0 0 0 0 0 0 0 0 0 0 0 0 0 0 0 0 0 0 0 0 0 0 0 0 0 0 0 0 0 0 0 0 0 0 0 0 0
0 0 0 0 0 0 0 0 0 0 0 0 0 0 0 0 0 0 0 0 0 0 0 0 0 -0 0 0 0 0 0 0 0 0 0 0 0 0 0 0 0 0 0 0
0 0 0 0 0 0 0 0 0 0 0 0 0 0 0 0 0 0 0 0 0 0 -0 -0 -0 -0 0 0 0 0 0 0 0 0 0 0 0 0 0 0 0 0 0 0
0 0 0 0 0 0 0 0 0 0 0 0 0 0 0 0 0 0 0 0 0 0 -0 -0 -0 0 0 0 0 0 0 0 0 0 0 0 0 0 0 0 0 0 0 0
0 0 0 0 0 0 0 0 0 0 0 0 0 0 0 0 0 0 0 0 0 0 -0 -0 0 0 0 0 0 0 0 0 0 0 0 0 0 0 0 0 0 0 0 0
0 0 0 0 0 0 0 0 0 0 0 0 0 0 0 0 0 0 0 0 0 -0 -0 0 0 0 0 0 0 0 0 0 0 0 0 0 0 0 0 0 0 0 0 0
0 0 0 0 0 0 0 0 0 0 0 0 0 0 0 0 0 0 -0 0 0 -0 0 0 0 0 0 0 0 0 0 0 0 0 0 0 0 0 0 0 0 0 0 0
0 0 0 0 0 0 0 0 0 0 0 0 0 0 0 0 0 0 0 0 0 0 0 0 0 0 0 0 0 0 0 0 0 0 0 0 0 0 0 0 0 0 0 0
0 0 0 0 0 0 0 0 0 0 0 0 0 0 0 0 0 0 0 0 0 0 0 0 0 0 0 0 0 0 0 0 0 0 0 0 0 0 0 0 0 0 0 0
0 0 0 0 0 0 0 0 0 0 0 0 0 0 0 0 0 0 0 0 0 0 0 0 0 0 0 0 0 0 0 0 0 0 0 0 0 0 0 0 0 0 0 0
0 0 0 0 0 0 0 0 0 0 0 0 0 0 0 0 0 0 0 0 0 0 0 0 0 0 0 0 0 0 0 0 0 0 0 0 0 0 0 0 0 0 0 0
0 0 0 0 0 0 0 0 0 0 0 0 0 0 0 0 0 0 0 0 0 0 0 0 0 0 0 0 0 0 0 0 0 0 0 0 0 0 0 0 0 0 0 0
0 0 0 0 0 0 0 0 0 0 0 0 0 0 0 0 0 0 0 0 0 0 0 0 0 0 0 0 0 0 0 0 0 0 0 0 0 0 0 0 0 0 0 0
0 0 0 0 0 0 0 0 0 0 0 0 0 0 0 0 0 0 0 0 0 0 0 0 0 0 0 0 0 0 0 0 0 0 0 0 0 0 0 0 0 0 0 0
0 0 0 0 0 0 0 0 0 0 0 0 0 -0 -0 0 0 0 0 0 0 0 0 0 0 0 0 0 0 0 0 0 0 0 0 0 0 0 0 0 0 0 0 0
0 0 0 0 0 0 0 0 0 0 0 -0 0 -0 -0 0 0 0 0 0 0 0 0 0 0 0 0 0 0 0 0 0 0 0 0 0 0 0 0 0 0 0 0 0
0 0 0 0 0 0 0 0 0 0 0 -0 -0 -0 -0 -0 0 0 0 0 0 0 0 0 -0 0 0 0 0 0 0 0 0 0 0 0 0 0 0 0 -0 -0 -0 -0
0 0 0 0 0 0 0 0 0 0 0 -0 -0 -0 -0 -0 0 0 0 0 0 0 0 0 -0 0 0 0 0 0 0 0 -0 0 0 0 0 0 0 0 0 -0 -0 -0
0 0 0 0 0 0 0 0 0 0 -0 -0 -0 0 -0 -0 0 0 0 0 0 0 0 0 0 0 0 0 0 -0 -0 -0 0 0 0 0 0 0 0 0 0 0 0 -0
0 0 0 0 0 0 0 0 0 -0 0 0 -0 -0 -0 0 0 0 0 0 0 0 0 0 0 0 0 0 0 0 0 0 0 0 0 0 0 0 0 0 0 0 -0 -0
0 0 0 0 0 0 0 0 0 0 0 0 0 -0 -0 0 0 0 0 0 0 0 0 0 0 0 0 0 0 0 0 0 0 0 0 0 0 0 0 0 -0 -0 -0 -0
Wind_Speed_500mb
10 12 23 19 18 18 13 6 5 11 4 7 11 13 18 8 23 18 18 19 19 24 28 31 35 33 31 39 39 37 36 32 33 33 35 39 35 24 21 18 12 12 17 17
8 20 30 24 18 19 24 19 12 9 1 9 20 36 38 25 20 20 20 20 23 23 30 35 34 35 38 36 34 31 28 24 27 35 39 37 28 20 22 15 12 13 17 17
7 6 10 16 17 16 15 11 5 2 1 35 19 26 24 22 22 20 18 22 28 28 29 28 30 34 32 28 31 32 24 28 40 46 35 33 27 20 20 21 13 12 17 19
3 11 10 8 12 14 19 9 11 11 11 24 31 27 21 15 15 13 18 25 25 21 21 25 27 31 29 25 25 32 25 34 37 36 35 36 35 28 26 25 26 23 23 21
6 4 7 7 13 10 10 1 5 11 26 37 43 39 25 16 13 15 20 21 21 23 26 27 26 31 27 24 22 22 30 34 34 30 32 38 41 36 30 26 24 23 24 24
3 5 6 2 13 16 21 4 11 24 18 32 28 6 5 9 13 18 22 25 25 24 23 27 32 33 24 25 27 30 30 31 29 31 29 32 32 32 33 34 28 25 27 29
2 4 0 7 24 10 9 9 13 25 24 17 10 12 18 10 15 20 20 26 25 24 28 28 28 27 25 24 26 26 27 25 27 31 29 28 28 35 38 39 40 39 40 41
4 6 2 16 7 8 14 24 23 27 32 39 34 25 17 14 16 15 21 26 22 24 27 26 27 29 28 28 28 27 26 26 33 32 30 31 34 35 35 35 38 40 41 40
7 9 10 19 32 32 27 28 25 26 33 30 25 19 15 11 14 14 21 22 21 25 29 29 23 24 26 33 34 33 40 42 41 36 32 28 28 31 32 33 32 31 32 31
8 3 22 33 32 25 19 24 24 28 26 17 19 12 14 13 13 15 16 20 21 20 26 25 28 26 26 32 27 27 30 32 32 32 31 28 27 32 33 33 35 42 47 47
5 4 19 22 23 26 26 25 32 27 21 18 16 15 11 12 11 14 10 12 15 22 22 22 24 24 24 30 26 24 29 29 25 24 24 28 41 49 55 58 73 79 77 67
9 33 15 31 31 33 30 31 28 29 26 20 10 13 12 13 14 15 9 10 11 16 18 16 18 21 22 25 19 27 30 39 38 39 38 47 56 59 60 61 62 55 51 55
13 34 37 44 34 23 30 36 28 23 18 14 10 9 9 13 16 22 25 18 22 20 20 18 20 20 21 23 22 24 41 54 58 57 59 66 59 56 54 53 52 47 52 58
45 51 43 35 29 20 29 31 20 22 16 10 15 11 10 14 19 23 22 26 23 25 20 19 18 21 28 26 23 39 52 53 51 46 42 40 36 38 43 47 53 53 52 42
40 20 20 26 23 28 28 26 22 22 16 17 12 9 7 14 19 23 21 17 13 13 16 25 23 24 31 42 58 55 45 42 40 38 35 41 44 44 53 46 41 40 37 41
38 32 35 29 27 31 33 32 27 26 20 15 10 13 10 16 21 19 17 15 14 15 25 26 33 40 47 52 46 43 41 39 41 38 35 33 34 38 35 31 31 36 34 34
50 46 39 35 33 33 35 36 26 30 19 11 15 14 11 16 15 17 23 19 15 19 27 34 44 51 58 49 40 38 32 31 31 33 37 35 30 22 23 28 27 27 26 28
22 22 24 22 31 35 33 39 32 26 18 13 17 12 12 13 11 12 14 14 17 27 37 41 36 36 32 26 25 24 28 28 30 22 17 20 24 25 27 26 28 27 27 28
28 30 27 25 28 37 31 38 31 27 13 17 18 13 11 12 10 13 12 16 8 21 34 39 36 29 25 22 22 19 26 23 18 15 22 27 27 25 24 23 24 24 23 23
39 35 30 31 34 30 32 33 28 23 15 14 22 20 17 13 12 15 12 10 12 26 36 27 24 22 21 18 15 27 20 25 27 31 24 22 22 22 20 20 19 18 17 18
52 43 37 35 35 30 32 33 30 23 21 17 25 19 16 17 12 13 19 18 20 22 24 20 16 14 12 14 19 29 24 26 19 20 16 14 14 14 15 13 12 12 14 18
54 42 32 31 31 34 31 27 21 21 23 23 22 19 19 21 16 21 19 10 12 18 22 22 20 17 8 8 12 29 18 15 13 14 9 7 8 7 8 9 10 13 16 17
34 26 32 32 32 35 32 27 26 20 14 17 20 10 18 25 22 20 20 18 13 10 14 19 29 20 14 12 19 17 11 10 7 12 10 8 5 6 9 12 14 18 19 20
23 27 31 31 39 35 35 27 23 21 15 16 18 14 14 21 16 15 14 20 17 12 10 22 28 24 18 14 9 12 12 2 3 5 5 1 4 8 10 13 13 16 19 20
21 26 31 36 39 35 32 25 20 21 15 17 17 18 20 20 18 14 13 21 19 18 13 14 27 29 22 18 18 15 7 4 6 4 3 6 6 8 13 11 16 18 20 22
20 25 27 28 28 35 31 28 25 19 18 16 20 23 25 27 21 23 12 9 16 25 20 20 24 19 14 12 7 14 13 13 17 13 10 8 9 9 9 14 17 19 21 22
22 21 23 26 23 37 33 29 25 16 21 16 11 29 21 14 12 16 10 10 9 21 21 26 28 18 13 9 10 13 13 14 11 11 9 11 11 12 13 14 12 16 19 20
Wind_Direction_500mb
309 317 86 91 67 55 67 68 91 170 222 201 236 239 252 163 105 61 57 64 35 6 357 356 355 353 353 347 347 343 346 354 2 360 1 350 339 341 344 355 350 328 320 322
320 72 80 63 29 81 86 91 89 134 166 154 86 96 93 91 78 78 75 30 14 5 352 353 356 350 344 351 357 356 358 1 354 347 343 345 341 341 334 331 326 324 338 340
290 332 129 46 42 78 79 43 109 47 358 113 85 91 85 88 95 70 31 12 356 349 352 355 343 351 358 359 3 356 352 360 356 353 4 357 356 355 1 6 336 337 17 40
250 4 52 123 114 146 108 80 70 79 105 126 121 96 91 84 85 46 18 3 1 1 344 340 337 342 345 345 359 347 7 4 16 20 17 36 42 52 55 56 63 71 63 44
93 59 137 176 164 210 176 294 73 111 126 137 121 108 86 89 45 44 28 12 356 345 341 340 355 357 346 351 9 14 11 30 24 25 48 65 55 47 43 45 51 46 35 41
92 99 167 97 313 330 123 21 91 124 128 159 175 74 229 80 64 34 6 2 348 350 359 356 15 11 17 27 31 34 34 31 37 51 71 62 40 47 51 51 55 61 64 64
123 134 341 333 356 342 85 229 104 116 129 127 105 132 140 115 61 11 12 11 13 19 24 22 20 20 28 41 49 51 35 44 57 58 65 50 46 49 54 65 72 73 74 73
55 79 49 344 7 99 153 127 108 120 121 115 117 118 115 76 31 6 14 7 26 41 28 26 35 43 48 52 53 54 63 63 66 62 56 60 64 66 65 65 75 80 78 74
153 196 154 106 122 131 133 117 112 122 128 120 115 109 77 68 35 41 31 36 52 46 33 33 40 47 48 68 81 81 74 64 58 59 57 60 70 70 71 70 68 68 74 75
83 140 132 125 123 125 122 119 115 127 123 99 106 74 107 59 55 40 39 61 45 27 25 49 58 50 59 94 81 70 63 56 49 49 47 58 70 68 79 75 77 77 78 83
58 148 147 154 144 143 134 128 127 116 95 90 93 81 88 54 46 17 33 53 41 36 40 77 64 53 59 105 79 61 59 59 53 45 53 69 81 89 85 85 96 95 91 88
207 185 165 164 149 144 139 140 134 116 102 82 61 88 58 68 51 40 29 18 44 47 61 79 63 68 81 84 67 61 62 68 67 71 76 91 104 97 92 92 95 92 77 75
141 166 143 134 137 141 137 142 131 110 94 88 94 95 56 77 61 55 37 47 97 81 71 76 72 66 77 102 69 75 91 93 87 85 91 108 96 91 87 80 74 72 66 66
141 136 125 143 135 144 142 133 117 111 97 87 105 77 66 94 78 62 52 94 89 81 72 58 80 77 86 110 89 102 110 102 89 84 91 86 88 82 87 85 86 78 75 64
162 175 178 162 144 142 148 147 138 139 113 105 93 68 101 108 87 57 80 86 103 94 57 72 84 98 103 113 113 104 98 90 80 76 78 77 103 91 89 85 82 73 70 83
175 170 165 161 150 157 164 169 156 152 134 114 126 104 104 112 87 66 72 99 86 74 77 78 91 105 115 126 105 98 95 100 101 100 95 97 101 90 90 80 64 68 70 61
160 165 168 170 169 175 186 188 169 154 135 128 115 126 126 121 105 78 62 105 86 75 93 108 110 116 121 110 99 102 100 108 104 107 97 90 82 75 74 80 82 82 70 52
195 186 179 167 177 186 192 190 165 153 141 152 137 128 143 145 123 108 82 91 74 107 121 118 118 118 126 110 79 78 89 92 91 89 78 65 79 95 106 86 82 79 76 63
180 168 165 170 184 183 176 166 161 158 154 181 163 156 154 151 136 130 109 99 105 121 140 122 115 114 117 121 113 127 106 88 71 64 87 104 108 95 87 85 87 86 80 71
165 163 176 186 181 183 171 165 163 165 165 171 159 157 159 161 155 158 148 143 140 135 149 137 124 128 139 128 114 139 110 86 77 100 96 101 108 105 101 98 94 81 64 51
171 174 171 171 171 173 174 165 162 161 168 172 166 171 170 161 173 172 158 155 154 158 162 153 142 115 108 109 99 138 110 87 102 102 109 101 94 92 94 93 80 58 42 25
165 164 164 167 167 168 168 167 161 160 171 177 177 191 186 173 188 170 165 157 166 166 183 181 167 161 164 91 106 156 107 94 112 118 87 86 97 90 49 36 39 26 17 14
162 162 159 165 172 170 164 165 170 167 181 189 187 178 188 177 190 190 195 182 176 175 172 184 175 168 163 149 119 119 124 93 91 144 120 96 67 38 23 17 16 9 9 9
160 161 163 166 170 173 172 177 191 189 195 189 189 191 174 187 196 186 182 196 206 196 199 186 182 182 177 182 171 155 145 145 177 170 192 241 344 352 354 354 6 23 24 25
173 174 171 171 181 180 180 180 193 188 188 205 209 213 207 209 221 204 219 218 219 223 220 202 197 199 198 206 223 208 191 172 212 306 302 324 293 291 316 344 6 14 23 26
180 180 180 182 193 188 185 184 197 198 212 239 231 224 216 213 233 225 213 186 225 221 211 195 182 178 201 206 197 196 206 244 250 241 250 279 312 312 329 347 350 359 12 18
178 181 183 190 193 196 195 194 206 220 238 244 245 174 178 182 200 198 205 226 225 196 193 184 185 190 183 197 230 251 253 226 230 229 254 303 310 307 308 319 345 4 6 8
Wind_Speed_850mb
10 12 23 19 18 18 13 6 5 11 4 7 11 13 18 8 23 18 18 19 19 24 28 31 35 33 31 39 39 37 36 32 33 33 35 39 35 24 21 18 12 12 17 17
8 20 30 24 18 19 24 19 12 9 1 9 20 36 38 25 20 20 20 20 23 23 30 35 34 35 38 36 34 31 28 24 27 35 39 37 28 20 22 15 12 13 17 17
7 6 10 16 17 16 15 11 5 2 1 35 19 26 24 22 22 20 18 22 28 28 29 28 30 34 32 28 31 32 24 28 40 46 35 33 27 20 20 21 13 12 17 19
3 11 10 8 12 14 19 9 11 11 11 24 31 27 21 15 15 13 18 25 25 21 21 25 27 31 29 25 25 32 25 34 37 36 35 36 35 28 26 25 26 23 23 21
6 4 7 7 13 10 10 1 5 11 26 37 43 39 25 16 13 15 20 21 21 23 26 27 26 31 27 24 22 22 30 34 34 30 32 38 41 36 30 26 24 23 24 24
3 5 6 2 13 16 21 4 11 24 18 32 28 6 5 9 13 18 22 25 25 24 23 27 32 33 24 25 27 30 30 31 29 31 29 32 32 32 33 34 28 25 27 29
2 4 0 7 24 10 9 9 13 25 24 17 10 12 18 10 15 20 20 26 25 24 28 28 28 27 25 24 26 26 27 25 27 31 29 28 28 35 38 39 40 39 40 41
4 6 2 16 7 8 14 24 23 27 32 39 34 25 17 14 16 15 21 26 22 24 27 26 27 29 28 28 28 27 26 26 33 32 30 31 34 35 35 35 38 40 41 40
7 9 10 19 32 32 27 28 25 26 33 30 25 19 15 11 14 14 21 22 21 25 29 29 23 24 26 33 34 33 40 42 41 36 32 28 28 31 32 33 32 31 32 31
8 3 22 33 32 25 19 24 24 28 26 17 19 12 14 13 13 15 16 20 21 20 26 25 28 26 26 32 27 27 30 32 32 32 31 28 27 32 33 33 35 42 47 47
5 4 19 22 23 26 26 25 32 27 21 18 16 15 11 12 11 14 10 12 15 22 22 22 24 24 24 30 26 24 29 29 25 24 24 28 41 49 55 58 73 79 77 67
9 33 15 31 31 33 30 31 28 29 26 20 10 13 12 13 14 15 9 10 11 16 18 16 18 21 22 25 19 27 30 39 38 39 38 47 56 59 60 61 62 55 51 55
13 34 37 44 34 23 30 36 28 23 18 14 10 9 9 13 16 22 25 18 22 20 20 18 20 20 21 23 22 24 41 54 58 57 59 66 59 56 54 53 52 47 52 58
45 51 43 35 29 20 29 31 20 22 16 10 15 11 10 14 19 23 22 26 23 25 20 19 18 21 28 26 23 39 52 53 51 46 42 40 36 38 43 47 53 53 52 42
40 20 20 26 23 28 28 26 22 22 16 17 12 9 7 14 19 23 21 17 13 13 16 25 23 24 31 42 58 55 45 42 40 38 35 41 44 44 53 46 41 40 37 41
38 32 35 29 27 31 33 32 27 26 20 15 10 13 10 16 21 19 17 15 14 15 25 26 33 40 47 52 46 43 41 39 41 38 35 33 34 38 35 31 31 36 34 34
50 46 39 35 33 33 35 36 26 30 19 11 15 14 11 16 15 17 23 19 15 19 27 34 44 51 58 49 40 38 32 31 31 33 37 35 30 22 23 28 27 27 26 28
22 22 24 22 31 35 33 39 32 26 18 13 17 12 12 13 11 12 14 14 17 27 37 41 36 36 32 26 25 24 28 28 30 22 17 20 24 25 27 26 28 27 27 28
28 30 27 25 28 37 31 38 31 27 13 17 18 13 11 12 10 13 12 16 8 21 34 39 36 29 25 22 22 19 26 23 18 15 22 27 27 25 24 23 24 24 23 23
39 35 30 31 34 30 32 33 28 23 15 14 22 20 17 13 12 15 12 10 12 26 36 27 24 22 21 18 15 27 20 25 27 31 24 22 22 22 20 20 19 18 17 18
52 43 37 35 35 30 32 33 30 23 21 17 25 19 16 17 12 13 19 18 20 22 24 20 16 14 12 14 19 29 24 26 19 20 16 14 14 14 15 13 12 12 14 18
54 42 32 31 31 34 31 27 21 21 23 23 22 19 19 21 16 21 19 10 12 18 22 22 20 17 8 8 12 29 18 15 13 14 9 7 8 7 8 9 10 13 16 17
34 26 32 32 32 35 32 27 26 20 14 17 20 10 18 25 22 20 20 18 13 10 14 19 29 20 14 12 19 17 11 10 7 12 10 8 5 6 9 12 14 18 19 20
23 27 31 31 39 35 35 27 23 21 15 16 18 14 14 21 16 15 14 20 17 12 10 22 28 24 18 14 9 12 12 2 3 5 5 1 4 8 10 13 13 16 19 20
21 26 31 36 39 35 32 25 20 21 15 17 17 18 20 20 18 14 13 21 19 18 13 14 27 29 22 18 18 15 7 4 6 4 3 6 6 8 13 11 16 18 20 22
20 25 27 28 28 35 31 28 25 19 18 16 20 23 25 27 21 23 12 9 16 25 20 20 24 19 14 12 7 14 13 13 17 13 10 8 9 9 9 14 17 19 21 22
22 21 23 26 23 37 33 29 25 16 21 16 11 29 21 14 12 16 10 10 9 21 21 26 28 18 13 9 10 13 13 14 11 11 9 11 11 12 13 14 12 16 19 20
Wind_Direction_850mb
309 317 86 91 67 55 67 68 91 170 222 201 236 239 252 163 105 61 57 64 35 6 357 356 355 353 353 347 347 343 346 354 2 360 1 350 339 341 344 355 350 328 320 322
320 72 80 63 29 81 86 91 89 134 166 154 86 96 93 91 78 78 75 30 14 5 352 353 356 350 344 351 357 356 358 1 354 347 343 345 341 341 334 331 326 324 338 340
290 332 129 46 42 78 79 43 109 47 358 113 85 91 85 88 95 70 31 12 356 349 352 355 343 351 358 359 3 356 352 360 356 353 4 357 356 355 1 6 336 337 17 40
250 4 52 123 114 146 108 80 70 79 105 126 121 96 91 84 85 46 18 3 1 1 344 340 337 342 345 345 359 347 7 4 16 20 17 36 42 52 55 56 63 71 63 44
93 59 137 176 164 210 176 294 73 111 126 137 121 108 86 89 45 44 28 12 356 345 341 340 355 357 346 351 9 14 11 30 24 25 48 65 55 47 43 45 51 46 35 41
92 99 167 97 313 330 123 21 91 124 128 159 175 74 229 80 64 34 6 2 348 350 359 356 15 11 17 27 31 34 34 31 37 51 71 62 40 47 51 51 55 61 64 64
123 134 341 333 356 342 85 229 104 116 129 127 105 132 140 115 61 11 12 11 13 19 24 22 20 20 28 41 49 51 35 44 57 58 65 50 46 49 54 65 72 73 74 73
55 79 49 344 7 99 153 127 108 120 121 115 117 118 115 76 31 6 14 7 26 41 28 26 35 43 48 52 53 54 63 63 66 62 56 60 64 66 65 65 75 80 78 74
153 196 154 106 122 131 133 117 112 122 128 120 115 109 77 68 35 41 31 36 52 46 33 33 40 47 48 68 81 81 74 64 58 59 57 60 70 70 71 70 68 68 74 75
83 140 132 125 123 125 122 119 115 127 123 99 106 74 107 59 55 40 39 61 45 27 25 49 58 50 59 94 81 70 63 56 49 49 47 58 70 68 79 75 77 77 78 83
58 148 147 154 144 143 134 128 127 116 95 90 93 81 88 54 46 17 33 53 41 36 40 77 64 53 59 105 79 61 59 59 53 45 53 69 81 89 85 85 96 95 91 88
207 185 165 164 149 144 139 140 134 116 102 82 61 88 58 68 51 40 29 18 44 47 61 79 63 68 81 84 67 61 62 68 67 71 76 91 104 97 92 92 95 92 77 75
141 166 143 134 137 141 137 142 131 110 94 88 94 95 56 77 61 55 37 47 97 81 71 76 72 66 77 102 69 75 91 93 87 85 91 108 96 91 87 80 74 72 66 66
141 136 125 143 135 144 142 133 117 111 97 87 105 77 66 94 78 62 52 94 89 81 72 58 80 77 86 110 89 102 110 102 89 84 91 86 88 82 87 85 86 78 75 64
162 175 178 162 144 142 148 147 138 139 113 105 93 68 101 108 87 57 80 86 103 94 57 72 84 98 103 113 113 104 98 90 80 76 78 77 103 91 89 85 82 73 70 83
175 170 165 161 150 157 164 169 156 152 134 114 126 104 104 112 87 66 72 99 86 74 77 78 91 105 115 126 105 98 95 100 101 100 95 97 101 90 90 80 64 68 70 61
160 165 168 170 169 175 186 188 169 154 135 128 115 126 126 121 105 78 62 105 86 75 93 108 110 116 121 110 99 102 100 108 104 107 97 90 82 75 74 80 82 82 70 52
195 186 179 167 177 186 192 190 165 153 141 152 137 128 143 145 123 108 82 91 74 107 121 118 118 118 126 110 79 78 89 92 91 89 78 65 79 95 106 86 82 79 76 63
180 168 165 170 184 183 176 166 161 158 154 181 163 156 154 151 136 130 109 99 105 121 140 122 115 114 117 121 113 127 106 88 71 64 87 104 108 95 87 85 87 86 80 71
165 163 176 186 181 183 171 165 163 165 165 171 159 157 159 161 155 158 148 143 140 135 149 137 124 128 139 128 114 139 110 86 77 100 96 101 108 105 101 98 94 81 64 51
171 174 171 171 171 173 174 165 162 161 168 172 166 171 170 161 173 172 158 155 154 158 162 153 142 115 108 109 99 138 110 87 102 102 109 101 94 92 94 93 80 58 42 25
165 164 164 167 167 168 168 167 161 160 171 177 177 191 186 173 188 170 165 157 166 166 183 181 167 161 164 91 106 156 107 94 112 118 87 86 97 90 49 36 39 26 17 14
162 162 159 165 172 170 164 165 170 167 181 189 187 178 188 177 190 190 195 182 176 175 172 184 175 168 163 149 119 119 124 93 91 144 120 96 67 38 23 17 16 9 9 9
160 161 163 166 170 173 172 177 191 189 195 189 189 191 174 187 196 186 182 196 206 196 199 186 182 182 177 182 171 155 145 145 177 170 192 241 344 352 354 354 6 23 24 25
173 174 171 171 181 180 180 180 193 188 188 205 209 213 207 209 221 204 219 218 219 223 220 202 197 199 198 206 223 208 191 172 212 306 302 324 293 291 316 344 6 14 23 26
180 180 180 182 193 188 185 184 197 198 212 239 231 224 216 213 233 225 213 186 225 221 211 195 182 178 201 206 197 196 206 244 250 241 250 279 312 312 329 347 350 359 12 18
178 181 183 190 193 196 195 194 206 220 238 244 245 174 178 182 200 198 205 226 225 196 193 184 185 190 183 197 230 251 253 226 230 229 254 303 310 307 308 319 345 4 6 8